Date,TemperatureHighF,TemperatureAvgF,TemperatureLowF,DewpointHighF,DewpointAvgF,DewpointLowF,HumidityHigh,HumidityAvg,HumidityLow,PressureMaxIn,PressureMinIn,WindSpeedMaxMPH,WindSpeedAvgMPH,GustSpeedMaxMPH,PrecipitationSumIn
2013-1-1,80,73,68,64,61,57,80,65,54,30.15,30.00,11,3,18,0.09
2013-1-2,84,73,64,68,64,61,92,75,50,30.04,29.93,5,1,11,0.00
2013-1-3,83,74,68,70,67,65,93,79,58,30.08,29.97,5,2,11,0.02
2013-1-4,84,74,67,72,68,64,93,83,64,30.17,30.04,4,1,11,0.00
2013-1-5,78,72,68,71,68,66,94,88,75,30.20,30.10,3,1,8,0.12
2013-1-6,82,74,67,74,69,65,96,85,67,30.14,30.01,8,2,15,0.05
2013-1-7,78,72,69,72,68,67,94,88,73,30.11,30.00,4,1,13,0.01
2013-1-8,84,76,70,75,71,68,95,84,68,30.14,30.01,8,3,17,0.05
2013-1-9,82,78,75,72,71,68,88,79,69,30.23,30.10,10,5,22,0.00
2013-1-10,82,77,74,70,67,63,80,70,53,30.24,30.13,11,5,24,0.00
2013-1-11,83,77,73,71,68,66,82,74,61,30.21,30.10,8,4,18,0.00
2013-1-12,82,75,69,71,67,64,86,77,61,30.12,30.03,7,2,19,0.01
2013-1-13,82,75,68,69,65,62,87,71,55,30.08,30.01,9,4,20,0.00
2013-1-14,81,74,67,66,64,62,87,71,55,30.12,30.06,8,2,19,0.00
2013-1-15,80,74,68,71,67,63,91,78,65,30.08,29.99,7,2,17,0.01
2013-1-16,82,74,65,71,67,61,93,80,63,30.05,29.95,7,2,15,0.04
2013-1-17,81,72,63,72,66,55,94,82,56,30.04,29.92,19,3,43,0.02
2013-1-18,73,66,55,60,54,47,75,66,55,30.18,30.04,6,4,14,0.00
2013-1-19,71,69,65,68,64,57,94,84,63,30.16,30.03,4,1,9,0.15
2013-1-20,82,72,65,71,67,63,97,85,64,30.08,29.95,4,1,10,0.08
2013-1-21,80,72,67,72,68,66,95,86,69,30.01,29.90,6,1,12,0.01
2013-1-22,77,69,64,64,60,54,91,73,56,30.15,29.94,6,2,11,0.01
2013-1-23,76,68,62,60,56,53,80,65,46,30.24,30.13,7,2,17,0.00
2013-1-24,78,67,59,56,54,49,84,65,43,30.24,30.13,4,1,11,0.00
2013-1-25,78,68,58,60,56,52,83,67,46,30.23,30.11,6,1,14,0.00
2013-1-26,79,69,60,62,59,55,91,72,48,30.20,30.10,5,1,12,0.00
2013-1-27,81,72,63,64,61,58,87,70,51,30.24,30.13,6,2,17,0.00
2013-1-28,82,76,71,66,64,62,76,67,53,30.26,30.17,8,4,18,0.00
2013-1-29,81,75,70,70,66,64,85,75,63,30.18,30.06,9,4,20,0.00
2013-1-30,82,75,71,68,65,63,84,72,60,30.07,29.91,11,5,24,0.00
2013-1-31,73,68,61,71,60,43,93,75,51,30.12,29.89,8,2,15,0.00
2013-2-1,75,64,54,56,49,40,70,58,49,30.21,30.09,6,3,14,0.00
2013-2-2,76,65,55,55,51,42,79,60,44,30.20,30.06,6,2,15,0.00
2013-2-3,77,66,58,55,50,38,87,62,28,30.11,30.00,6,2,14,0.00
2013-2-4,72,65,52,53,45,42,86,52,35,30.08,30.01,3,2,8,0.00
2013-2-5,79,72,57,69,55,43,90,57,35,30.05,29.96,7,3,13,0.28
2013-2-6,80,71,62,69,63,60,94,76,61,30.07,29.98,5,2,12,0.00
2013-2-7,82,74,65,67,64,60,89,72,51,30.04,29.91,7,3,18,0.00
2013-2-8,85,76,70,71,68,62,91,77,58,30.00,29.88,8,3,16,0.00
2013-2-9,82,72,65,69,63,59,92,74,56,30.14,29.98,6,3,18,0.00
2013-2-10,76,72,68,66,62,57,83,70,65,30.23,30.11,9,4,19,0.08
2013-2-11,79,73,67,66,64,60,85,72,63,30.18,30.07,8,4,19,0.00
2013-2-12,87,75,65,70,66,62,92,75,45,30.08,29.93,8,3,17,0.00
2013-2-13,86,78,71,72,69,67,92,77,53,29.98,29.86,8,4,17,0.00
2013-2-14,82,73,64,73,68,61,93,85,70,29.97,29.81,10,2,22,0.48
2013-2-15,74,68,64,68,65,62,96,92,81,29.98,29.91,4,1,11,0.31
2013-2-16,77,67,58,66,58,46,96,75,45,30.05,29.84,10,5,21,0.00
2013-2-17,62,55,47,47,30,17,69,42,20,30.28,30.04,9,4,21,0.00
2013-2-18,71,61,48,57,47,36,74,60,46,30.28,30.17,8,4,20,0.00
2013-2-19,78,72,61,67,61,54,88,70,59,30.16,30.05,9,4,20,0.00
2013-2-20,82,73,66,69,65,57,94,77,46,30.08,29.98,7,2,15,0.01
2013-2-21,82,74,66,70,66,63,92,75,57,30.06,29.95,7,3,17,0.00
2013-2-22,82,76,72,72,69,66,88,79,65,30.07,29.98,9,5,21,0.00
2013-2-23,86,78,74,72,70,68,88,78,57,30.02,29.88,7,4,17,0.00
2013-2-24,90,79,72,76,70,63,95,75,42,29.96,29.86,7,2,15,0.00
2013-2-25,85,77,70,74,70,66,91,80,61,29.89,29.77,9,3,20,0.01
2013-2-26,87,80,75,74,70,67,88,73,55,29.87,29.77,10,5,24,0.00
2013-2-27,80,73,66,73,67,63,93,81,58,29.94,29.83,5,2,12,0.13
2013-2-28,71,67,62,65,57,51,93,71,53,29.97,29.87,5,2,14,0.00
2013-3-1,68,64,60,58,53,49,82,68,59,29.96,29.86,5,3,14,0.00
2013-3-2,69,60,54,50,44,39,70,56,40,30.00,29.91,11,4,25,0.00
2013-3-3,69,58,52,53,44,41,84,61,43,30.11,29.92,10,4,20,0.02
2013-3-4,69,58,46,44,38,31,72,51,25,30.17,30.07,7,3,16,0.00
2013-3-5,81,65,51,58,53,44,86,66,44,30.14,30.04,7,2,16,0.00
2013-3-6,80,67,55,66,52,22,90,62,19,30.08,29.91,13,5,25,0.01
2013-3-7,75,62,50,54,45,37,82,54,33,30.15,30.03,5,2,15,0.00
2013-3-8,80,67,54,57,50,36,87,60,23,30.16,30.06,6,2,11,0.00
2013-3-9,79,66,56,59,54,50,86,66,44,30.15,30.06,6,2,17,0.00
2013-3-10,79,72,65,61,56,54,71,58,43,30.13,30.03,8,4,17,0.00
2013-3-11,79,73,69,62,60,56,72,64,45,30.07,29.92,9,5,18,0.00
2013-3-12,83,75,70,68,65,61,81,70,56,29.97,29.87,9,4,21,0.00
2013-3-13,80,69,60,65,55,44,84,63,31,30.10,29.94,6,3,14,0.00
2013-3-14,76,65,56,54,46,34,83,56,24,30.17,30.05,6,3,16,0.00
2013-3-15,77,66,54,54,50,45,74,59,37,30.22,30.12,6,2,16,0.00
2013-3-16,77,67,55,61,54,52,90,65,45,30.16,30.05,7,2,17,0.00
2013-3-17,78,69,60,63,58,54,85,68,49,30.11,29.99,9,2,20,0.00
2013-3-18,81,73,66,70,65,60,92,78,63,30.05,29.92,10,4,21,0.05
2013-3-19,83,74,69,70,68,65,94,81,57,29.98,29.77,8,2,19,0.01
2013-3-20,89,75,66,73,65,59,95,73,45,29.94,29.77,10,2,21,0.00
2013-3-21,79,69,62,63,54,38,87,63,25,29.92,29.80,6,3,13,0.00
2013-3-22,75,60,59,60,54,53,85,81,58,29.95,29.86,5,0,13,0.00
2013-3-23,88,84,77,73,71,67,83,66,50,29.91,29.77,9,4,20,0.02
2013-3-24,91,81,75,74,72,69,95,74,51,29.86,29.66,14,6,32,0.01
2013-3-25,83,76,67,73,62,45,92,64,37,29.97,29.71,8,4,17,0.01
2013-3-26,73,64,54,46,40,30,59,41,21,30.18,29.95,10,5,21,0.00
2013-3-27,73,61,48,48,42,38,75,53,32,30.22,30.13,6,3,14,0.00
2013-3-28,78,64,52,52,45,37,75,52,25,30.23,30.13,6,2,12,0.00
2013-3-29,79,68,57,54,50,44,69,54,35,30.25,30.17,6,2,15,0.00
2013-3-30,81,69,58,62,54,48,87,60,37,30.23,30.13,7,2,17,0.00
2013-3-31,81,72,62,66,61,54,85,69,53,30.17,30.01,9,4,19,0.00
2013-4-1,89,77,70,74,67,61,89,73,44,30.03,29.91,9,3,17,0.13
2013-4-2,88,76,66,72,66,62,94,72,44,30.05,29.95,6,2,13,0.00
2013-4-3,84,77,70,70,68,66,90,73,55,30.04,29.95,10,4,22,0.00
2013-4-4,86,77,70,72,70,66,93,80,59,30.02,29.86,12,4,34,1.44
2013-4-5,74,70,67,70,66,64,95,90,81,29.95,29.78,8,3,14,0.61
2013-4-6,80,71,61,67,62,58,93,74,58,30.05,29.88,7,3,17,0.02
2013-4-7,81,74,70,65,63,62,81,69,53,30.10,29.98,6,3,17,0.00
2013-4-8,88,75,63,71,62,58,91,66,42,30.10,30.01,6,2,14,0.00
2013-4-9,84,77,69,69,66,64,85,70,56,30.11,30.01,9,4,19,0.00
2013-4-10,85,79,73,72,70,66,83,74,63,30.08,29.96,9,5,20,0.00
2013-4-11,85,80,76,74,72,70,85,77,64,29.99,29.87,11,7,23,0.00
2013-4-12,88,80,74,77,74,69,92,81,66,29.92,29.83,9,4,24,1.93
2013-4-13,86,78,74,76,73,71,93,84,66,29.94,29.85,6,2,14,0.11
2013-4-14,87,80,73,78,73,71,96,80,61,29.93,29.86,9,4,20,0.01
2013-4-15,91,80,72,78,73,68,94,81,52,30.03,29.89,8,3,17,0.33
2013-4-16,89,80,73,79,73,70,96,79,60,30.10,29.99,7,3,16,0.00
2013-4-17,87,80,75,73,69,67,87,70,54,30.09,29.99,6,3,15,0.00
2013-4-18,88,81,75,75,71,67,84,71,55,30.03,29.94,9,4,20,0.00
2013-4-19,88,82,78,74,72,68,81,71,54,30.02,29.93,12,6,24,0.00
2013-4-20,93,81,74,80,73,69,94,79,51,30.06,29.90,11,2,23,0.50
2013-4-21,87,79,73,76,72,67,93,79,57,30.06,29.95,9,3,20,0.00
2013-4-22,87,75,69,74,70,66,95,85,58,30.02,29.89,10,2,20,1.80
2013-4-23,91,77,69,75,67,61,95,72,52,30.06,29.91,9,3,18,0.00
2013-4-24,88,79,70,70,64,61,84,62,45,30.11,30.00,7,3,18,0.00
2013-4-25,88,79,71,66,62,60,75,59,42,30.18,30.05,5,2,14,0.00
2013-4-26,91,78,68,70,64,61,84,63,46,30.19,30.08,7,3,17,0.00
2013-4-27,87,79,71,68,64,62,73,62,48,30.18,30.05,6,4,20,0.00
2013-4-28,85,79,74,67,64,62,75,61,50,30.09,29.96,7,4,17,0.00
2013-4-29,85,79,75,72,68,63,81,70,59,30.00,29.91,8,4,21,0.00
2013-4-30,92,78,72,76,70,66,88,78,54,29.98,29.89,8,2,19,0.02
2013-5-1,87,77,71,77,71,69,95,83,63,29.97,29.88,8,2,17,0.35
2013-5-2,83,73,70,75,70,68,96,90,74,29.91,29.73,8,3,20,2.10
2013-5-3,89,77,69,75,70,66,95,79,52,29.78,29.65,8,3,19,0.21
2013-5-4,89,80,70,76,68,65,95,71,49,29.78,29.65,8,4,15,0.00
2013-5-5,85,77,69,70,64,55,88,65,42,29.91,29.72,8,4,17,0.00
2013-5-6,89,76,61,66,61,57,87,62,41,29.99,29.89,6,2,15,0.00
2013-5-7,88,78,66,67,61,58,86,59,38,30.04,29.94,8,4,19,0.00
2013-5-8,89,78,65,68,62,55,88,59,34,30.11,30.01,6,2,13,0.00
2013-5-9,92,80,68,73,67,59,83,67,45,30.11,30.03,7,2,17,0.00
2013-5-10,91,83,75,74,72,67,86,71,49,30.11,29.99,8,3,17,0.00
2013-5-11,89,80,72,77,73,67,93,78,60,30.04,29.95,9,3,21,0.56
2013-5-12,92,80,73,77,72,69,96,80,50,30.04,29.92,8,2,14,0.85
2013-5-13,91,81,72,79,71,66,95,73,52,30.06,29.96,6,2,13,0.01
2013-5-14,86,78,71,68,62,56,82,59,43,30.15,30.03,7,3,17,0.00
2013-5-15,87,77,68,65,62,59,83,60,44,30.16,30.06,7,3,17,0.00
2013-5-16,86,78,68,67,62,58,80,60,46,30.09,30.01,6,3,14,0.00
2013-5-17,89,80,71,74,69,64,85,70,46,30.06,29.98,8,2,17,0.00
2013-5-18,94,82,75,76,72,70,90,73,50,30.08,29.99,8,3,21,0.00
2013-5-19,89,81,73,73,70,66,88,69,51,30.07,29.97,7,3,16,0.00
2013-5-20,83,77,71,75,72,68,94,86,72,30.05,29.93,7,2,23,1.32
2013-5-21,87,78,72,78,71,68,94,80,59,30.02,29.90,9,3,21,0.01
2013-5-22,88,78,73,77,73,70,94,85,64,29.94,29.86,6,2,14,0.56
2013-5-23,94,84,74,79,73,68,96,74,45,29.98,29.88,7,3,14,0.01
2013-5-24,94,84,77,76,74,69,92,72,49,30.03,29.91,6,2,14,0.01
2013-5-25,90,82,76,75,69,64,88,65,47,30.14,30.00,7,4,20,0.00
2013-5-26,92,81,73,71,65,62,77,60,44,30.15,30.07,7,4,19,0.00
2013-5-27,88,80,75,74,70,64,91,71,56,30.13,30.03,8,4,20,0.08
2013-5-28,84,79,75,75,73,71,92,81,69,30.08,29.99,8,5,21,0.38
2013-5-29,82,76,72,75,72,69,96,87,74,30.06,29.99,12,5,29,2.40
2013-5-30,85,79,73,76,73,70,95,81,70,30.03,29.96,11,7,28,0.09
2013-5-31,88,80,75,77,74,72,93,82,65,30.03,29.96,8,5,20,0.26
2013-6-1,93,78,75,81,75,73,96,90,62,30.00,29.92,7,2,14,0.37
2013-6-2,93,80,73,82,74,72,97,84,60,29.98,29.89,9,2,17,0.37
2013-6-3,88,80,74,78,74,71,95,83,58,30.01,29.88,7,2,14,0.08
2013-6-4,87,80,75,78,75,72,95,85,63,30.02,29.92,6,2,11,0.07
2013-6-5,85,82,79,78,76,74,89,83,75,29.99,29.86,5,3,14,0.01
2013-6-6,90,81,76,80,76,72,94,85,65,29.88,29.74,12,6,30,0.77
2013-6-7,91,79,75,78,74,72,95,87,63,29.97,29.81,9,3,20,1.65
2013-6-8,90,81,75,78,76,74,96,83,66,30.07,29.93,8,3,16,0.01
2013-6-9,90,84,80,77,75,73,84,74,61,30.08,30.01,9,5,19,0.00
2013-6-10,91,85,80,78,76,74,84,74,62,30.07,29.98,8,4,17,0.00
2013-6-11,90,84,80,80,76,72,88,78,56,30.08,29.98,7,3,16,0.01
2013-6-12,91,82,78,78,76,74,90,82,61,30.05,29.99,5,1,12,0.04
2013-6-13,92,81,76,80,74,70,95,80,53,30.02,29.91,5,1,11,0.07
2013-6-14,96,83,75,78,74,70,93,75,47,29.95,29.85,9,2,21,0.64
2013-6-15,94,84,76,80,75,72,94,75,49,30.03,29.90,5,2,12,0.00
2013-6-16,96,85,76,80,75,72,92,74,54,30.07,29.98,7,2,14,0.00
2013-6-17,95,86,79,78,75,73,86,70,54,30.06,29.97,8,3,17,0.00
2013-6-18,94,86,79,77,75,72,87,71,54,30.05,29.95,8,3,17,0.00
2013-6-19,93,86,80,78,75,72,87,71,53,30.02,29.95,7,3,19,0.00
2013-6-20,92,83,76,78,73,70,90,74,51,30.07,29.99,8,2,21,0.19
2013-6-21,92,85,78,78,74,68,93,71,50,30.09,30.00,8,3,14,0.08
2013-6-22,94,86,79,76,74,71,84,67,53,30.07,30.00,6,3,14,0.00
2013-6-23,92,85,80,76,73,70,79,67,53,30.10,30.02,8,4,20,0.00
2013-6-24,91,85,78,79,74,71,86,71,57,30.14,30.05,9,4,18,0.26
2013-6-25,92,84,78,78,75,72,90,74,58,30.10,30.00,8,3,18,0.07
2013-6-26,91,85,79,80,75,71,89,72,53,30.05,29.98,8,4,18,0.07
2013-6-27,91,83,78,78,75,71,86,76,60,30.04,29.93,6,2,12,0.13
2013-6-28,96,83,75,79,74,72,93,76,54,29.97,29.83,7,2,19,0.52
2013-6-29,93,82,75,80,75,70,95,81,53,29.89,29.80,9,2,17,0.06
2013-6-30,91,83,78,78,75,72,91,78,56,29.92,29.82,9,3,21,0.28
2013-7-1,79,78,78,76,75,74,90,90,86,29.94,29.88,3,0,9,0.00
2013-7-2,78,78,78,75,75,75,90,90,90,29.90,29.90,0,0,2,0.00
2013-7-3,78,78,78,75,75,75,90,90,90,29.90,29.90,0,0,2,0.00
2013-7-4,78,78,78,75,75,75,90,90,90,29.90,29.90,0,0,2,0.00
2013-7-5,78,78,78,75,75,75,90,90,90,29.90,29.90,0,0,2,0.00
2013-7-6,83,79,78,75,75,73,90,88,73,30.06,29.90,6,1,14,0.65
2013-7-7,92,85,79,76,75,73,86,71,59,30.06,29.98,8,4,20,0.01
2013-7-8,92,85,79,75,73,71,80,68,53,30.10,30.02,8,3,17,0.00
2013-7-9,91,84,77,76,73,69,88,71,52,30.10,30.00,6,2,17,0.00
2013-7-10,88,80,75,77,74,71,92,83,66,30.04,29.96,6,2,19,0.78
2013-7-11,94,83,76,82,74,71,95,76,56,30.00,29.89,8,2,17,0.01
2013-7-12,96,83,77,79,74,70,91,76,52,29.94,29.85,9,1,17,0.04
2013-7-13,90,78,74,76,73,71,96,86,61,29.99,29.87,7,2,14,1.55
2013-7-14,90,79,74,76,73,70,96,83,56,30.06,29.93,7,3,19,0.93
2013-7-15,91,82,74,80,74,71,96,76,54,30.04,29.96,8,2,18,0.05
2013-7-16,85,79,75,77,73,70,92,81,65,30.10,30.00,11,4,28,0.27
2013-7-17,80,76,73,76,73,70,96,92,79,30.11,29.99,9,2,21,1.93
2013-7-18,90,78,74,82,74,71,97,90,67,30.08,30.00,8,2,14,0.78
2013-7-19,85,82,74,83,80,73,97,95,94,30.06,30.03,0,0,3,0.00
2013-7-20,85,84,78,83,82,73,94,93,77,30.06,29.99,2,0,4,0.13
2013-7-21,90,82,77,79,76,72,93,82,65,30.11,30.01,6,2,14,0.00
2013-7-22,92,85,79,80,75,72,91,73,55,30.10,30.02,7,3,17,0.00
2013-7-23,96,86,78,80,75,70,91,70,44,30.07,29.92,7,2,17,0.00
2013-7-24,95,86,78,80,74,70,93,70,45,29.99,29.87,7,3,15,0.08
2013-7-25,96,87,77,78,74,72,88,67,50,29.98,29.87,8,3,17,0.00
2013-7-26,96,85,79,78,75,72,91,74,49,29.99,29.89,8,4,18,0.32
2013-7-27,96,82,77,81,76,73,93,83,60,29.97,29.89,8,2,17,0.57
2013-7-28,93,82,77,81,76,72,94,81,61,30.03,29.91,5,2,11,0.02
2013-7-29,93,84,77,80,76,73,93,77,58,30.10,29.98,6,2,16,0.00
2013-7-30,97,86,77,81,77,73,91,74,57,30.12,30.03,3,0,8,0.05
2013-7-31,97,86,80,79,75,72,86,70,54,30.07,29.96,0,0,0,0.00
2013-8-1,94,86,81,76,74,71,80,68,55,30.02,29.90,5,1,14,0.00
2013-8-2,97,84,78,80,74,70,90,74,52,30.03,29.88,8,2,23,0.26
2013-8-3,88,79,73,78,75,69,95,88,67,30.10,29.98,15,1,34,0.80
2013-8-4,100,85,76,82,75,71,96,76,46,30.08,29.94,1,0,3,0.00
2013-8-5,93,84,78,82,76,72,91,78,57,30.01,29.90,0,0,0,0.00
2013-8-6,95,84,78,81,76,73,93,79,58,29.95,29.83,0,0,0,0.00
2013-8-7,84,78,78,76,75,74,93,92,77,30.07,29.87,2,0,4,0.00
2013-8-8,91,86,79,82,75,72,88,71,56,30.04,29.96,0,0,0,0.13
2013-8-9,84,84,81,75,74,71,80,74,67,30.06,29.98,4,0,12,0.13
2013-8-10,92,86,81,78,75,73,83,71,57,30.12,30.03,9,4,21,0.00
2013-8-11,95,87,82,79,76,74,82,70,58,30.13,30.06,6,3,16,0.00
2013-8-12,95,86,78,79,75,73,88,72,52,30.11,30.01,6,2,17,0.14
2013-8-13,94,86,80,80,75,71,87,70,52,30.04,29.95,7,3,14,0.00
2013-8-14,99,86,78,80,74,71,89,70,47,30.02,29.92,8,3,17,0.00
2013-8-15,87,82,77,78,76,73,92,82,71,30.06,29.96,6,2,14,0.14
2013-8-16,93,86,80,81,77,74,89,74,55,30.06,29.97,7,3,14,0.00
2013-8-17,93,87,82,79,77,75,85,73,58,30.08,30.00,8,4,17,0.00
2013-8-18,94,86,83,78,77,75,82,73,56,30.08,29.99,9,4,22,0.08
2013-8-19,93,86,80,79,76,73,87,72,56,30.07,29.97,9,4,18,0.05
2013-8-20,93,87,82,78,75,73,83,69,53,30.07,29.98,8,4,18,0.01
2013-8-21,90,84,80,81,77,75,90,80,65,30.08,29.99,8,3,23,0.20
2013-8-22,93,85,76,82,77,72,93,77,60,30.08,29.95,8,3,27,0.25
2013-8-23,94,85,80,79,76,73,86,74,54,30.02,29.93,7,2,17,0.00
2013-8-24,97,85,77,83,76,71,93,76,55,30.11,29.96,8,2,17,0.46
2013-8-25,88,81,78,78,76,73,94,83,67,30.15,30.02,5,2,11,0.13
2013-8-26,92,83,78,80,74,71,89,76,56,30.12,30.00,7,2,14,0.00
2013-8-27,90,81,76,79,74,70,91,79,55,30.05,29.96,4,1,10,0.17
2013-8-28,88,81,76,78,74,72,91,81,62,30.04,29.94,8,2,17,0.24
2013-8-29,93,84,76,78,75,72,92,76,55,30.03,29.92,6,2,15,0.00
2013-8-30,96,85,77,81,74,70,91,70,46,30.01,29.90,7,2,15,0.00
2013-8-31,84,80,76,79,74,71,94,82,70,30.08,29.93,4,1,9,0.39
2013-9-1,90,80,74,81,76,73,96,88,63,30.06,29.98,7,1,17,0.13
2013-9-2,91,80,75,83,76,71,96,87,61,30.08,29.99,10,1,21,0.47
2013-9-3,91,82,74,83,76,73,96,83,63,30.08,29.98,5,1,11,0.02
2013-9-4,87,82,78,80,77,76,93,85,75,30.12,30.00,5,1,12,0.14
2013-9-5,91,84,79,79,77,74,91,79,61,30.12,30.04,6,2,14,0.00
2013-9-6,93,86,79,82,76,72,92,74,53,30.09,29.97,5,2,13,0.00
2013-9-7,86,80,75,79,75,72,95,86,67,30.04,29.95,4,1,11,0.38
2013-9-8,92,80,74,82,75,73,96,84,57,30.01,29.91,6,1,12,0.06
2013-9-9,91,83,75,81,74,72,94,76,56,30.05,29.95,6,2,14,0.01
2013-9-10,91,83,77,80,75,71,93,78,56,30.10,30.00,8,3,21,0.27
2013-9-11,91,80,76,83,75,72,94,85,71,30.11,30.01,7,2,19,0.51
2013-9-12,86,81,77,78,75,73,93,83,74,30.07,29.94,4,1,8,0.00
2013-9-13,96,84,75,83,75,71,95,74,53,29.96,29.85,5,2,12,0.00
2013-9-14,99,86,77,82,74,70,92,71,49,30.03,29.87,6,2,14,0.00
2013-9-15,95,82,79,81,76,73,90,83,58,30.10,29.97,6,2,17,0.07
2013-9-16,89,82,79,80,76,72,91,83,72,30.09,30.00,8,2,19,0.01
2013-9-17,85,80,76,79,75,73,94,85,75,30.08,29.96,4,2,11,0.43
2013-9-18,88,81,76,78,75,72,94,84,64,30.08,29.96,6,2,11,0.67
2013-9-19,97,82,75,84,75,71,96,80,58,30.06,29.97,6,2,16,0.01
2013-9-20,94,82,75,77,72,68,90,71,49,30.05,29.95,7,2,14,0.02
2013-9-21,95,82,74,80,74,72,93,76,54,29.97,29.82,5,2,12,0.00
2013-9-22,94,85,77,78,75,71,93,74,49,29.92,29.80,6,2,14,0.00
2013-9-23,92,82,77,80,76,72,93,84,64,30.03,29.91,10,1,26,0.37
2013-9-24,93,83,76,82,75,72,95,79,56,30.02,29.92,11,2,20,0.02
2013-9-25,90,82,76,80,75,72,90,81,63,29.97,29.85,8,2,19,0.18
2013-9-26,91,81,77,81,76,75,94,87,66,29.92,29.85,12,2,17,0.18
2013-9-27,94,84,76,80,74,70,95,73,53,29.94,29.86,6,2,11,0.01
2013-9-28,87,87,77,74,72,72,90,61,60,30.09,29.88,3,3,8,0.11
2013-9-29,90,82,74,78,72,69,95,74,52,30.03,29.93,4,2,17,0.02
2013-9-30,90,82,74,76,72,69,89,71,52,30.07,29.96,6,2,13,0.00
2013-10-1,91,84,78,75,72,70,84,68,54,30.09,30.01,6,3,14,0.00
2013-10-2,88,83,80,74,73,72,79,73,62,30.11,30.02,6,4,17,0.00
2013-10-3,90,83,78,76,74,71,87,74,60,30.11,30.00,6,2,14,0.00
2013-10-4,91,83,76,75,72,69,89,71,53,30.12,30.04,5,2,17,0.00
2013-10-5,92,82,74,82,71,65,94,72,44,30.10,29.99,5,2,12,0.00
2013-10-6,92,83,76,78,72,66,91,70,45,30.03,29.92,5,2,13,0.01
2013-10-7,92,81,75,76,72,69,90,76,50,29.96,29.87,14,2,23,0.07
2013-10-8,92,83,76,80,74,71,94,76,55,30.00,29.91,7,3,13,0.01
2013-10-9,88,80,74,77,73,70,90,80,66,30.05,29.96,6,2,12,0.00
2013-10-10,89,81,74,75,72,69,91,74,55,30.07,30.00,6,2,14,0.00
2013-10-11,90,80,72,73,68,65,89,69,46,30.07,30.00,6,2,15,0.00
2013-10-12,93,80,70,76,68,66,90,69,49,30.09,30.01,4,1,11,0.00
2013-10-13,88,80,74,76,68,62,92,69,46,30.11,30.03,5,1,12,0.00
2013-10-14,89,80,72,74,69,65,90,70,47,30.08,29.97,6,2,15,0.00
2013-10-15,90,80,72,75,70,68,91,73,52,30.02,29.93,5,2,12,0.00
2013-10-16,88,79,73,75,70,67,90,75,52,30.01,29.94,4,1,11,0.00
2013-10-17,89,80,72,76,71,69,92,74,54,30.03,29.95,5,2,12,0.00
2013-10-18,90,81,73,76,72,70,91,74,54,30.05,29.96,6,2,15,0.00
2013-10-19,90,83,75,74,73,71,91,72,56,30.03,29.93,7,3,15,0.00
2013-10-20,91,83,78,79,75,70,89,77,53,30.03,29.93,6,2,14,0.00
2013-10-21,90,83,77,78,75,73,91,77,57,30.07,29.96,7,3,14,0.02
2013-10-22,91,83,77,79,75,73,92,77,58,30.03,29.89,7,2,14,0.13
2013-10-23,90,82,77,76,73,68,92,75,58,30.02,29.88,6,2,14,0.00
2013-10-24,82,78,74,70,66,62,74,67,60,30.14,30.00,5,2,12,0.00
2013-10-25,85,78,71,68,64,62,79,65,47,30.20,30.10,6,3,20,0.00
2013-10-26,86,76,69,69,64,62,84,68,48,30.20,30.10,5,2,17,0.00
2013-10-27,86,76,67,66,63,60,81,65,48,30.14,30.06,5,2,13,0.00
2013-10-28,87,77,68,70,65,59,88,68,41,30.20,30.09,6,2,13,0.00
2013-10-29,87,78,69,72,67,65,89,71,50,30.22,30.14,7,3,18,0.00
2013-10-30,86,80,74,68,67,64,79,65,49,30.24,30.13,7,4,19,0.00
2013-10-31,86,80,76,74,70,66,82,71,56,30.16,30.04,8,4,20,0.04
2013-11-1,89,82,75,74,72,71,87,74,57,30.06,29.93,7,3,17,0.00
2013-11-2,90,81,73,76,70,64,94,73,45,29.99,29.85,7,2,14,0.00
2013-11-3,83,76,70,66,63,60,83,66,52,30.07,29.94,8,3,18,0.02
2013-11-4,82,77,74,69,64,56,85,65,43,30.13,30.04,10,6,22,0.08
2013-11-5,84,80,76,72,68,65,85,69,57,30.14,30.06,9,6,22,0.02
2013-11-6,86,80,73,72,69,68,84,70,55,30.11,30.04,8,4,21,0.00
2013-11-7,89,78,71,75,70,66,93,76,47,30.07,29.96,4,1,11,0.00
2013-11-8,87,78,72,73,70,67,95,79,54,30.08,29.98,8,3,16,0.18
2013-11-9,81,76,73,74,72,71,96,87,79,30.16,30.05,8,5,22,0.53
2013-11-10,85,79,76,73,70,68,86,75,63,30.16,30.08,6,3,15,0.01
2013-11-11,86,78,71,73,69,66,91,74,59,30.16,30.09,6,2,15,0.00
2013-11-12,86,78,71,73,68,66,90,73,55,30.13,30.01,5,2,14,0.00
2013-11-13,78,73,69,68,64,57,88,74,62,30.24,30.03,8,4,21,0.09
2013-11-14,78,73,69,62,58,55,68,59,50,30.29,30.18,8,5,17,0.00
2013-11-15,84,78,73,71,66,61,86,68,58,30.19,30.07,7,4,20,0.01
2013-11-16,82,78,75,72,69,67,88,75,65,30.14,30.06,8,3,17,0.07
2013-11-17,85,80,74,73,71,68,87,75,61,30.12,30.04,8,4,18,0.00
2013-11-18,86,78,72,76,71,69,94,79,62,30.08,29.96,5,1,11,0.00
2013-11-19,89,78,73,75,72,70,92,81,57,29.99,29.89,5,2,12,0.00
2013-11-20,87,78,72,75,72,69,93,81,64,30.10,29.96,5,1,11,0.00
2013-11-21,84,78,73,77,73,71,95,86,69,30.18,30.08,7,2,23,0.24
2013-11-22,84,78,74,73,71,68,93,77,65,30.19,30.10,9,5,23,0.17
2013-11-23,86,79,74,73,71,70,86,77,60,30.12,30.02,6,2,15,0.00
2013-11-24,85,75,69,73,68,63,93,79,55,30.19,30.03,8,2,21,0.07
2013-11-25,78,74,72,70,65,60,91,73,65,30.25,30.09,9,6,22,0.14
2013-11-26,84,78,72,75,73,69,93,84,70,30.09,29.87,10,6,24,0.05
2013-11-27,83,74,62,75,66,53,96,77,50,30.15,29.83,10,5,21,0.47
2013-11-28,76,65,51,60,54,46,84,68,49,30.29,30.16,6,3,16,0.00
2013-11-29,79,71,61,64,60,57,89,69,53,30.31,30.23,7,3,21,0.00
2013-11-30,80,70,63,71,64,60,91,80,68,30.26,30.14,8,2,17,0.47
2013-12-1,76,69,64,73,67,60,96,91,82,30.15,29.98,4,1,9,1.25
2013-12-2,79,70,63,70,65,60,97,87,58,29.98,29.86,5,2,11,0.00
2013-12-3,81,71,62,68,64,60,96,79,52,30.05,29.93,5,1,11,0.00
2013-12-4,83,74,66,72,66,64,95,79,56,30.14,30.02,6,1,12,0.00
2013-12-5,85,75,67,73,68,64,94,80,61,30.21,30.12,8,3,18,0.00
2013-12-6,85,78,71,71,69,66,86,75,57,30.24,30.13,9,4,19,0.00
2013-12-7,87,76,68,74,69,65,93,79,54,30.26,30.18,6,2,14,0.00
2013-12-8,85,78,72,72,70,67,91,77,58,30.25,30.17,8,4,21,0.00
2013-12-9,86,79,74,71,68,62,85,70,48,30.24,30.16,10,4,20,0.00
2013-12-10,86,78,71,73,71,68,90,78,60,30.21,30.12,6,2,14,0.00
2013-12-11,86,77,71,76,71,69,95,81,63,30.25,30.16,5,1,12,0.00
2013-12-12,83,73,67,74,66,59,94,80,64,30.28,30.18,4,2,13,0.00
2013-12-13,75,72,67,70,62,57,86,72,64,30.23,29.95,7,4,22,0.00
2013-12-14,84,78,74,72,70,68,86,78,65,30.03,29.91,9,5,21,0.00
2013-12-15,87,78,73,76,72,68,95,82,65,29.98,29.85,9,3,19,0.00
2013-12-16,77,70,64,68,62,59,85,74,62,30.08,29.95,4,2,10,0.00
2013-12-17,81,69,61,65,60,57,89,73,52,30.09,30.01,6,2,17,0.00
2013-12-18,82,69,61,62,58,56,90,71,44,30.15,30.06,4,2,11,0.00
2013-12-19,81,70,59,64,59,55,89,70,50,30.16,30.06,6,2,18,0.00
2013-12-20,84,76,68,70,67,62,84,73,58,30.10,30.02,8,4,18,0.00
2013-12-21,85,79,76,73,71,69,85,77,64,30.07,29.98,10,5,24,0.00
2013-12-22,86,80,77,73,72,70,85,78,64,30.08,29.99,10,6,23,0.00
2013-12-23,86,79,73,73,72,69,88,79,64,30.10,30.03,8,4,17,0.00
2013-12-24,87,74,68,75,67,61,94,80,57,30.09,30.00,8,2,16,0.00
2013-12-25,80,74,71,68,66,64,88,77,64,30.08,26.97,9,4,21,0.00
2013-12-26,80,76,72,71,69,67,87,80,71,30.08,29.98,6,3,14,0.00
2013-12-27,84,75,69,73,70,68,95,84,66,30.11,30.00,7,3,17,0.00
2013-12-28,82,77,74,73,71,68,87,81,72,30.09,29.94,9,5,21,0.00
2013-12-29,82,78,76,74,73,72,94,84,75,29.95,29.85,8,4,18,0.00
2013-12-30,85,75,71,74,70,65,96,85,66,30.06,29.90,4,2,10,0.00
2013-12-31,82,74,69,69,64,62,87,72,56,30.14,30.02,8,4,19,0.00
2014-1-1,82,76,73,75,70,65,92,83,72,30.11,29.91,8,3,17,0.12
2014-1-2,87,77,69,72,69,65,96,78,52,29.91,29.74,8,3,20,0.01